This demonstration page uses our WeatherBlox Daily Observations layout. Learn more.

Left ArrowRight Arrow

40.97296, -117.73568

Hourly Observations for January 1, 2022

Temp ( °F °C ) Dew Point ( °F °C ) Humidity (%) Winds ( mph kmh ) Pressure ( in mb ) Visibility ( mi km ) Precip ( " mm )
12:56 am 00:56 Clear 14 -10 7 -13.9 73 73 NW 7 11 30.08 1019 10 16 0.00 0.00
1:56 am 01:56 Clear 10 -12.2 5 -15 80 80 SW 8 13 30.14 1021 10 16 0.00 0.00
2:56 am 02:56 Clear 8 -13.3 4 -15.6 83 83 W 6 9 30.17 1022 10 16 0.00 0.00
3:56 am 03:56 Clear 4 -15.6 -1 -18.3 80 80 Calm 30.21 1023 10 16 0.00 0.00
4:56 am 04:56 Clear 7 -13.9 0 -17.8 73 73 Calm 30.24 1024 10 16 0.00 0.00
5:56 am 05:56 Clear -3 -19.4 -7 -21.7 82 82 SSE 7 11 30.33 1027 10 16 0.00 0.00
6:56 am 06:56 Clear -2 -18.9 -6 -21.1 83 83 SSE 10 17 30.37 1029 10 16 0.00 0.00
7:56 am 07:56 Sunny 0 -17.8 -4 -20 83 83 ESE 3 6 30.40 1029 10 16 0.00 0.00
8:56 am 08:56 Sunny 8 -13.3 2 -16.7 76 76 ESE 5 7 30.40 1030 10 16 0.00 0.00
9:56 am 09:56 Sunny 12 -11.1 5 -15 73 73 Calm 30.43 1031 10 16 0.00 0.00
10:56 am 10:56 Sunny 19 -7.2 6 -14.4 57 57 Calm 30.41 1030 10 16 0.00 0.00
11:56 am 11:56 Sunny 19 -7.2 7 -13.9 59 59 ESE 5 7 30.40 1029 10 16 0.00 0.00
12:56 pm 12:56 Sunny 21 -6.1 9 -12.8 59 59 ESE 3 6 30.37 1028 10 16 0.00 0.00
1:56 pm 13:56 Sunny 22 -5.6 9 -12.8 57 57 ENE 7 11 30.39 1029 10 16 0.00 0.00
2:56 pm 14:56 Sunny 22 -5.6 9 -12.8 57 57 NE 7 11 30.42 1030 10 16 0.00 0.00
3:56 pm 15:56 Sunny 21 -6.1 8 -13.3 57 57 NE 7 11 30.44 1031 10 16 0.00 0.00
4:56 pm 16:56 Clear 17 -8.3 7 -13.9 64 64 ENE 8 13 30.45 1031 10 16 0.00 0.00
5:56 pm 17:56 Clear 14 -10 5 -15 67 67 ENE 8 13 30.51 1033 10 16 0.00 0.00
6:56 pm 18:56 Clear 12 -11.1 5 -15 73 73 Calm 30.51 1033 10 16 0.00 0.00
7:56 pm 19:56 Clear 11 -11.7 4 -15.6 73 73 ENE 9 15 30.52 1034 10 16 0.00 0.00
8:56 pm 20:56 Clear 11 -11.7 3 -16.1 70 70 NE 13 20 30.50 1033 10 16 0.00 0.00
9:56 pm 21:56 Clear 11 -11.7 4 -15.6 73 73 ENE 12 19 30.48 1032 10 16 0.00 0.00
10:56 pm 22:56 Clear 9 -12.8 2 -16.7 73 73 E 7 11 30.47 1032 10 16 0.00 0.00
11:56 pm 23:56 Clear 9 -12.8 2 -16.7 73 73 E 9 15 30.46 1032 10 16 0.00 0.00

Powered by AerisWeather